Wind_Speed
13 12 11 10 9 9 9 10 10 10 9 9 9 11 13 13 13 13 12 12 12 12 13 12 12 11 11 10 9 8 8 7 7 7 6 6 6 6 6 7 7 7 7
11 12 11 10 9 9 10 10 10 10 10 10 9 10 12 13 13 12 12 12 13 12 12 12 12 12 11 10 9 9 8 8 8 7 7 7 6 6 6 6 6 7 7
10 10 10 10 9 9 10 11 11 11 11 11 10 10 11 12 12 12 12 12 12 13 12 12 12 11 11 10 10 9 8 8 7 7 7 7 7 6 6 5 6 6 6
11 10 9 9 9 9 10 11 11 12 12 12 11 11 11 11 12 12 12 11 11 12 12 12 12 12 11 10 9 9 8 7 6 6 6 6 6 6 5 5 5 5 6
10 10 11 10 10 10 10 11 11 12 12 12 12 11 11 12 12 12 12 11 11 12 13 12 12 12 10 10 9 8 7 6 6 6 6 6 5 5 5 4 4 4 5
10 9 10 10 11 11 10 11 11 12 13 12 12 12 11 12 12 12 12 11 11 11 12 12 12 12 11 10 9 8 7 6 6 5 5 5 5 5 5 4 4 5 5
10 9 10 11 10 10 10 11 12 12 12 12 12 12 12 12 12 13 13 12 12 11 11 11 11 12 11 10 9 8 8 7 6 5 5 5 5 5 5 5 5 5 5
9 10 11 10 10 10 10 10 11 12 12 12 12 13 13 12 13 13 13 13 13 12 12 11 11 11 11 10 9 8 8 7 7 6 6 6 5 5 5 5 6 6 6
9 10 10 10 10 10 10 11 12 12 13 13 13 13 14 14 13 13 13 13 13 13 12 12 12 11 11 9 8 8 8 8 7 7 6 6 6 6 5 5 6 6 6
9 10 10 11 11 11 11 12 12 12 13 13 13 13 14 14 14 14 13 13 13 13 12 13 12 12 11 10 9 9 8 8 7 7 7 6 6 6 6 6 6 5 6
10 10 10 11 11 11 11 11 12 12 13 13 13 13 13 14 14 14 13 13 13 13 12 13 13 12 12 11 11 10 9 9 8 8 8 8 7 7 7 7 7 7 7
10 10 11 12 12 12 12 12 13 13 13 13 13 14 14 14 13 13 14 14 14 13 13 13 13 13 12 11 11 11 11 11 10 9 9 9 8 8 8 8 8 8 8
9 9 10 11 11 11 13 13 13 14 14 14 14 14 14 14 14 13 14 15 14 14 13 14 14 13 13 12 12 12 11 11 11 10 10 10 10 9 9 9 10 10 10
9 9 10 10 12 12 13 13 13 14 14 14 14 15 14 14 14 14 14 15 15 14 14 15 14 14 14 13 13 12 12 11 11 11 11 11 11 11 11 11 11 12 11
10 9 11 11 12 13 14 14 13 13 13 13 14 14 14 15 15 15 14 14 15 15 15 15 14 15 15 14 14 13 13 13 13 12 12 12 12 12 13 13 13 13 13
11 10 10 11 12 14 14 14 14 14 13 14 14 15 15 15 15 14 14 14 14 16 15 14 14 14 14 14 14 14 14 13 13 14 14 14 15 15 15 15 14 14 15
11 11 10 10 12 12 14 15 14 14 14 14 14 14 15 15 15 15 14 14 14 14 14 15 14 15 15 14 14 14 14 14 14 15 15 16 16 17 17 16 16 17 18
11 11 10 10 11 13 13 14 14 14 14 14 14 15 14 15 15 15 15 15 15 15 15 15 15 15 15 14 14 14 14 15 15 16 16 17 18 18 18 18 19 19 20
13 13 12 12 13 14 15 15 15 15 14 15 15 15 15 14 15 15 16 16 16 16 16 16 16 16 15 15 16 16 16 17 18 18 18 18 19 19 20 21 22 22 23
14 14 14 14 15 15 15 16 16 16 16 16 16 16 16 15 15 16 15 14 15 16 16 16 16 16 16 17 17 17 18 19 20 20 19 20 20 22 22 23 24 24 25
15 15 15 15 16 16 17 17 17 17 17 17 17 17 17 17 16 16 15 16 16 16 16 17 17 17 18 18 18 18 19 19 19 20 20 21 22 23 24 24 25 26 27
15 15 15 16 16 17 18 18 18 19 19 19 19 19 19 18 18 17 17 17 17 18 18 18 19 19 19 19 19 20 20 21 21 21 22 23 24 24 25 26 28 29 30
16 16 16 17 17 18 19 19 19 19 19 19 20 21 21 21 21 20 19 19 19 19 19 20 20 20 20 20 20 21 21 21 22 23 24 25 26 27 28 29 30 31 32
17 18 18 19 19 20 20 21 20 20 19 20 21 22 23 23 23 23 22 22 22 22 22 21 22 22 22 22 22 22 23 24 25 26 27 28 29 29 30 31 33 34 35
19 18 18 19 20 21 21 21 21 21 21 21 22 23 24 24 24 24 24 25 25 24 24 24 24 24 24 24 25 26 27 27 28 29 29 30 31 32 33 34 35 36 37
20 19 20 20 21 21 21 22 22 23 23 23 23 24 24 25 26 26 26 26 27 26 26 26 25 25 26 26 27 28 28 29 30 30 31 32 33 34 34 36 37 38 39
Wind_Direction
263 258 255 247 239 238 241 243 244 246 246 243 237 231 229 229 230 232 230 229 226 225 228 230 230 230 229 230 236 238 241 241 243 245 249 258 264 270 270 269 267 267 269
255 258 261 247 239 239 241 242 242 244 240 233 229 225 227 227 228 227 227 226 226 226 228 229 227 226 226 228 232 235 238 239 240 247 251 255 261 267 268 272 271 269 274
249 253 254 242 237 237 243 244 241 239 233 227 225 224 225 225 225 224 222 223 224 225 225 224 222 223 225 226 231 233 232 230 237 243 245 250 255 263 267 271 272 274 279
252 245 240 239 240 238 240 239 237 232 231 228 227 226 225 222 224 223 219 219 219 219 220 219 218 219 220 225 227 228 229 229 235 238 238 243 252 258 264 273 272 277 281
252 243 242 241 240 240 238 234 231 228 227 226 226 225 225 223 221 217 216 216 215 215 216 217 216 217 218 220 220 221 225 228 232 233 231 236 246 251 261 270 277 280 287
252 246 240 239 236 236 235 232 226 225 224 223 223 222 223 220 216 215 212 212 210 210 211 213 213 215 217 216 216 217 222 228 230 227 228 236 247 253 264 270 275 281 289
243 243 243 243 234 232 235 231 223 223 221 220 219 218 221 220 215 214 211 209 208 209 208 209 207 210 212 213 213 218 220 222 227 231 237 239 250 256 261 268 273 282 289
240 240 242 241 229 229 229 225 223 220 220 219 219 218 219 215 211 212 211 209 207 207 204 201 203 204 206 208 212 218 221 225 231 240 245 243 249 256 262 268 275 281 286
236 237 238 231 224 222 224 221 220 220 218 218 219 219 217 213 213 212 212 210 208 206 202 200 200 203 207 210 214 220 225 230 237 245 248 246 250 257 267 274 276 281 283
236 238 233 222 218 218 222 218 220 220 218 217 218 217 214 212 214 212 211 209 204 202 201 201 205 208 212 216 221 224 229 234 240 245 246 249 253 260 272 276 279 283 284
241 237 225 219 219 216 217 219 217 219 220 217 216 215 210 207 208 208 206 204 202 203 207 210 211 213 217 221 226 229 234 237 242 248 253 255 260 264 269 273 276 279 282
244 235 224 222 219 215 216 217 216 217 216 215 214 212 207 206 205 205 207 207 206 210 214 215 216 219 221 224 229 234 238 240 246 251 253 256 260 265 269 271 275 279 280
235 230 225 227 228 224 213 211 211 210 212 214 214 211 207 206 208 208 208 208 209 215 219 220 220 223 226 230 235 240 242 243 248 252 254 256 260 265 270 272 276 279 281
239 235 230 226 228 222 210 210 212 210 212 214 215 211 208 208 209 209 209 211 215 221 224 222 224 229 232 235 239 243 245 249 252 255 255 256 259 264 270 273 278 278 279
238 233 228 225 225 218 211 210 213 211 212 212 209 209 211 212 212 212 213 216 220 224 223 225 229 232 235 237 240 243 247 251 253 253 255 258 262 266 271 275 277 278 279
233 225 223 221 219 210 212 213 214 216 216 214 213 214 214 212 213 215 219 223 225 223 223 226 229 232 234 236 240 243 249 251 253 258 259 261 264 268 272 274 275 277 280
229 216 215 213 211 211 212 214 213 214 211 212 214 215 214 215 216 219 224 227 228 226 225 228 231 234 237 239 240 242 249 254 259 262 264 265 268 270 271 273 276 280 282
230 219 220 217 213 209 209 211 210 209 210 213 216 217 219 221 221 224 227 228 229 230 231 234 237 239 240 242 245 250 254 258 263 266 268 270 271 271 273 275 278 280 282
234 234 232 224 213 211 213 212 212 215 218 220 221 222 223 226 225 226 229 232 233 234 235 237 239 242 246 250 253 255 257 261 265 267 269 272 272 275 276 276 278 280 282
232 233 231 223 219 220 220 219 218 218 220 223 225 225 225 226 228 231 233 235 235 236 238 241 244 248 252 256 258 259 261 264 267 269 270 273 274 276 278 279 280 282 283
231 233 232 228 224 224 224 223 221 222 223 226 227 227 228 230 233 236 238 238 237 239 242 246 250 253 256 259 261 261 263 265 268 270 273 275 277 278 279 281 282 283 284
235 237 237 232 226 225 226 224 224 226 228 229 230 231 234 236 238 240 242 242 243 244 246 249 253 256 259 260 261 263 265 266 269 272 274 276 279 280 280 282 283 284 284
240 240 240 235 228 225 227 227 228 230 231 233 234 235 236 239 242 243 244 246 247 247 248 250 252 256 259 263 266 266 267 268 270 273 275 277 279 280 281 283 284 286 286
242 241 237 233 232 230 230 230 231 234 237 238 239 239 240 243 244 245 247 248 250 251 252 252 255 259 262 265 267 267 267 270 272 273 276 278 280 281 282 283 285 286 286
243 239 236 233 232 231 230 232 234 237 240 241 243 242 243 245 246 248 250 250 251 253 254 256 256 258 262 264 266 268 270 272 273 275 277 279 281 282 283 284 285 286 286
240 240 239 237 235 233 234 235 237 239 242 245 245 246 246 247 248 249 250 250 252 253 255 256 256 259 262 265 267 268 271 273 275 277 280 281 282 282 283 284 286 287 288
Height
5847 5846 5847 5849 5850 5852 5853 5854 5855 5856 5857 5858 5858 5860 5861 5863 5864 5865 5867 5868 5870 5871 5873 5874 5875 5876 5878 5879 5880 5880 5881 5881 5881 5882 5882 5882 5882 5881 5881 5881 5881 5880 5880
5843 5843 5844 5846 5847 5849 5850 5851 5852 5853 5854 5855 5856 5857 5859 5860 5862 5863 5864 5866 5867 5869 5870 5872 5873 5874 5876 5877 5878 5878 5879 5879 5880 5880 5880 5880 5881 5880 5880 5879 5879 5879 5878
5840 5841 5842 5843 5845 5846 5847 5848 5849 5850 5852 5853 5854 5855 5856 5858 5859 5861 5862 5863 5865 5866 5868 5870 5871 5872 5874 5875 5876 5876 5877 5877 5878 5878 5879 5879 5879 5878 5878 5878 5878 5877 5877
5837 5838 5839 5840 5842 5843 5844 5845 5846 5847 5849 5850 5852 5853 5854 5856 5857 5858 5860 5861 5863 5864 5866 5867 5868 5870 5871 5873 5874 5874 5875 5875 5876 5876 5877 5877 5877 5877 5877 5877 5876 5876 5875
5833 5835 5836 5837 5838 5839 5841 5841 5842 5844 5846 5848 5850 5851 5852 5854 5855 5856 5858 5859 5860 5862 5864 5865 5866 5868 5869 5871 5872 5873 5873 5874 5874 5874 5875 5875 5875 5875 5875 5875 5875 5874 5873
5830 5831 5833 5834 5835 5836 5837 5838 5839 5841 5843 5845 5847 5848 5850 5851 5853 5854 5856 5857 5858 5860 5861 5863 5864 5866 5867 5868 5870 5871 5871 5872 5872 5873 5873 5873 5874 5874 5874 5873 5873 5873 5872
5827 5828 5830 5831 5832 5833 5833 5834 5836 5838 5840 5842 5844 5845 5847 5848 5850 5852 5854 5855 5857 5858 5859 5861 5862 5864 5865 5866 5868 5869 5869 5870 5871 5871 5872 5872 5872 5872 5872 5872 5871 5871 5870
5823 5825 5827 5828 5829 5830 5831 5832 5833 5835 5837 5839 5841 5843 5844 5846 5848 5850 5851 5853 5854 5856 5857 5859 5860 5862 5863 5864 5866 5867 5868 5868 5869 5869 5870 5870 5870 5870 5870 5870 5869 5869 5868
5820 5821 5823 5824 5825 5826 5828 5829 5831 5832 5834 5836 5838 5840 5842 5844 5845 5847 5849 5850 5852 5853 5855 5857 5858 5860 5862 5863 5864 5865 5866 5866 5867 5867 5867 5868 5868 5868 5868 5868 5867 5867 5866
5817 5817 5818 5820 5821 5823 5824 5826 5827 5829 5831 5833 5836 5838 5839 5841 5843 5845 5846 5848 5850 5852 5853 5855 5857 5858 5860 5861 5862 5863 5864 5864 5865 5865 5865 5866 5866 5866 5866 5865 5865 5865 5864
5812 5813 5814 5816 5818 5819 5821 5823 5825 5827 5829 5831 5833 5835 5837 5838 5840 5842 5844 5846 5848 5850 5851 5853 5854 5856 5857 5859 5860 5861 5861 5862 5862 5863 5863 5863 5863 5863 5863 5863 5863 5862 5862
5809 5809 5811 5813 5815 5816 5818 5820 5822 5824 5826 5829 5831 5832 5834 5836 5838 5840 5842 5844 5846 5848 5849 5851 5852 5854 5855 5856 5857 5858 5859 5860 5860 5860 5860 5861 5861 5861 5861 5860 5860 5859 5859
5807 5806 5808 5810 5812 5814 5815 5817 5819 5821 5824 5826 5828 5830 5832 5834 5836 5838 5840 5841 5843 5845 5847 5848 5850 5851 5853 5854 5855 5855 5856 5857 5857 5857 5858 5858 5858 5858 5858 5857 5857 5856 5856
5803 5804 5805 5807 5810 5811 5813 5815 5817 5819 5821 5823 5826 5827 5830 5831 5833 5835 5837 5839 5841 5842 5844 5845 5847 5848 5850 5851 5851 5852 5853 5853 5854 5854 5854 5855 5855 5855 5854 5854 5853 5852 5852
5800 5800 5802 5804 5806 5808 5811 5813 5815 5817 5819 5821 5823 5825 5827 5829 5831 5833 5835 5836 5838 5839 5841 5842 5843 5845 5846 5847 5848 5849 5850 5850 5850 5851 5851 5851 5851 5851 5850 5850 5849 5848 5848
5797 5798 5800 5802 5803 5806 5809 5811 5813 5815 5817 5819 5821 5823 5824 5826 5828 5830 5832 5833 5835 5836 5837 5839 5840 5841 5842 5843 5844 5845 5846 5846 5847 5847 5847 5847 5847 5847 5846 5846 5845 5844 5843
5794 5796 5798 5800 5801 5803 5806 5808 5810 5812 5814 5817 5819 5821 5822 5824 5825 5827 5829 5830 5831 5833 5834 5835 5836 5838 5839 5840 5840 5841 5842 5842 5843 5843 5843 5842 5842 5842 5841 5841 5840 5839 5838
5792 5793 5795 5797 5799 5801 5803 5806 5808 5810 5812 5814 5816 5818 5820 5821 5823 5824 5826 5827 5828 5829 5830 5832 5833 5834 5835 5836 5836 5837 5838 5838 5838 5838 5838 5838 5838 5837 5836 5836 5835 5834 5833
5789 5791 5792 5794 5797 5799 5801 5803 5805 5807 5809 5811 5813 5815 5817 5818 5820 5821 5822 5823 5824 5826 5827 5828 5829 5830 5831 5832 5832 5833 5833 5833 5834 5834 5833 5833 5832 5832 5830 5830 5829 5828 5826
5785 5787 5788 5790 5793 5796 5797 5800 5801 5803 5806 5808 5810 5812 5813 5815 5816 5817 5819 5820 5821 5822 5823 5824 5825 5826 5827 5827 5828 5828 5828 5828 5828 5828 5828 5827 5826 5826 5824 5824 5822 5821 5820
5780 5782 5784 5786 5789 5792 5794 5796 5798 5800 5802 5804 5806 5808 5810 5811 5813 5814 5815 5816 5817 5818 5819 5820 5821 5822 5822 5822 5823 5823 5823 5823 5822 5822 5822 5821 5820 5819 5818 5817 5815 5814 5812
5775 5778 5780 5782 5784 5787 5789 5792 5795 5797 5798 5800 5802 5804 5805 5807 5808 5810 5811 5812 5813 5814 5815 5815 5816 5816 5817 5817 5817 5817 5817 5817 5816 5816 5815 5814 5813 5812 5811 5809 5807 5806 5804
5770 5773 5775 5777 5780 5783 5785 5787 5790 5792 5794 5796 5797 5799 5800 5802 5803 5805 5806 5807 5808 5809 5809 5810 5810 5810 5811 5811 5811 5811 5811 5810 5810 5809 5808 5807 5806 5804 5803 5801 5799 5797 5795
5765 5767 5770 5772 5775 5777 5780 5782 5784 5786 5789 5790 5792 5794 5795 5796 5798 5799 5800 5801 5802 5803 5803 5803 5804 5804 5804 5804 5804 5804 5804 5803 5803 5801 5800 5799 5797 5796 5794 5792 5790 5787 5785
5760 5762 5764 5767 5769 5772 5774 5777 5779 5781 5783 5785 5786 5788 5789 5790 5792 5793 5794 5795 5796 5796 5797 5797 5797 5798 5798 5798 5798 5797 5796 5795 5794 5793 5792 5790 5789 5787 5785 5782 5780 5777 5774
5754 5756 5759 5761 5764 5766 5769 5771 5773 5775 5777 5778 5779 5781 5782 5783 5785 5786 5787 5787 5788 5789 5789 5789 5790 5790 5791 5790 5790 5789 5788 5787 5785 5784 5783 5781 5779 5777 5775 5772 5769 5767 5764